Regional Weather Roundup
Issued by NWS

Home | Current Version | Previous Version | Graphics & Text | Print | Product List | Glossary On
Versions: 1 2 3 4 5 6 7 8 9 10 11 12 13 14 15 16 17 18 19 20 21 22 23 24 25 26 27 28 29 30 31 32 33 34 35 36 37 38 39 40 41 42 43 44 45 46 47 48 49 50
000
ASUS43 KMPX 271610
RWRMN
WEATHER ROUNDUP FOR MINNESOTA
NATIONAL WEATHER SERVICE TWIN CITIES/CHANHASSEN MN
1100 AM CDT THU AUG 27 2015


NOTE: "FAIR" INDICATES FEW OR NO CLOUDS BELOW 12,000 FEET WITH NO
SIGNIFICANT WEATHER AND/OR OBSTRUCTIONS TO VISIBILITY. N/A MEANS
CURRENT SKY AND/OR WEATHER CONDITIONS ARE NOT AVAILABLE.

MNZ060>063-068>070-271700-
   Twin Cities Metro

CITY           SKY/WX    TMP DP  RH WIND       PRES   REMARKS
TWIN CITIES    PTSUNNY   70  57  63 SE12      30.08F
ST PAUL        PTSUNNY   69  59  70 SE8       30.09F
CRYSTAL        PTSUNNY   72  57  59 S10       30.06F
BLAINE         PTSUNNY   72  57  60 S9        30.08F
LAKEVILLE      CLOUDY    66  57  72 S9        30.09F
EDEN PRAIRIE   PTSUNNY   70  58  65 S12       30.07F
SOUTH ST PAUL  PTSUNNY   70  56  62 S8        30.09F
LAKE ELMO      FAIR      68  59  73 S10       30.11S
$$
MNZ001>005-007-008-013>017-022>024-027-028-271700-
   Northwest Minnesota

CITY           SKY/WX    TMP DP  RH WIND       PRES   REMARKS
BEMIDJI        MOSUNNY   67  56  69 SE3       30.02S
HALLOCK        SUNNY     68  59  73 S8        29.98R
ROSEAU         SUNNY     68  57  68 S3        30.00S
WARROAD        SUNNY     66  59  77 SE3       30.00F
THIEF RVR FALL MOSUNNY  N/A N/A N/A SE5       29.99F
CROOKSTON      MOSUNNY   66  57  72 CALM      29.99S
FOSSTON        MOSUNNY   70  63  78 CALM      30.00F
DETROIT LAKES  MOSUNNY   68  59  73 S9        30.01S
MOORHEAD       MOSUNNY   70  61  73 SE6       29.98S
PARK RAPIDS    CLOUDY    68  56  65 SE9       30.02S
MAHNOMEN       CLOUDY    66  58  76 SE3       30.00R
$$
MNZ006-009>011-018-025>026-271700-
   North Central Minnesota

CITY           SKY/WX    TMP DP  RH WIND       PRES   REMARKS
BAUDETTE       SUNNY     66  56  70 S5        30.01F
FLAG ISLAND    SUNNY     64  55  72 S7        29.99F
INTL FALLS     SUNNY     68  55  63 VRB6      30.04F
WASKISH        SUNNY     70  57  64 SE5       30.01S
BIG FORK       SUNNY     70  57  64 SE6       30.04F
LONGVILLE      CLOUDY    66  57  72 SE5       30.03F
GRAND RAPIDS   SUNNY     66  54  63 S8        30.05F
CRANE LAKE     SUNNY     64  55  72 S7        30.08S
ORR            SUNNY     66  54  63 S5        30.04F
COOK           SUNNY     66  55  68 S7        30.07F
WALKER         CLOUDY    64  56  74 S5        30.03S
$$
MNZ012-019>021-037-271700-
   Northeast Minnesota

CITY           SKY/WX    TMP DP  RH WIND       PRES   REMARKS
DULUTH         MOSUNNY   67  54  63 S10       30.09F
ELY            SUNNY     64  54  68 S8        30.08F
HIBBING        SUNNY     66  55  67 VRB5      30.07F
EVELETH        SUNNY     64  54  68 S6        30.08F
DULUTH HARBOR  MOSUNNY   57  52  82 NE3       30.10F
TWO HARBORS    SUNNY     68  57  68 CALM      30.08F
SILVER BAY     SUNNY     66  52  59 S3        30.09F
GRAND MARAIS     N/A     56  47  71 E3        30.10F
G MARAIS ARPRT MOSUNNY   64  46  52 S7        30.12F
$$
MNZ029>031-032-039>041-046>048-054>057-064-271700-
   West Central Minnesota

CITY           SKY/WX    TMP DP  RH WIND       PRES   REMARKS
FERGUS FALLS   SUNNY     70  61  73 S7        29.98S
WHEATON        MOSUNNY   68  61  77 SE7       29.99R
MORRIS         FAIR      70  61  73 SE9       29.97F
ALEXANDRIA     SUNNY     68  60  75 SE9       30.02S
ELBOW LAKE     FAIR      68  61  77 SE7       29.99S
WADENA         MOSUNNY   66  57  72 SE6       30.00F
GLENWOOD       MOSUNNY   70  61  73 SE9       30.02S
APPLETON       PTSUNNY   64  57  77 SE6       29.99R
BENSON         PTSUNNY   66  57  72 SE7       29.99F
ORTONVILLE     PTSUNNY   63  57  82 S5        30.00R
MADISON        CLOUDY    64  61  88 SW8       30.03R
WILLMAR        FAIR      64  57  77 SE12      30.02S
$$
MNZ033>034-036-042>043-049>051-058-059-271700-
   Central Minnesota

CITY           SKY/WX    TMP DP  RH WIND       PRES   REMARKS
ST CLOUD       CLOUDY    69  56  62 S15       30.03F
SAUK CENTRE    FAIR      68  59  72 S10       30.03R
PAYNESVILLE    MOSUNNY   67  57  70 E10       30.03S
AITKIN         MOSUNNY   70  57  64 SE9       30.04S
PINE RIVER     MOSUNNY   68  57  68 SE8       30.06S
BRAINERD       PTSUNNY   68  57  68 S10       30.03F
STAPLES        MOSUNNY   64  55  72 SE5       30.02S
LONG PRAIRIE   FAIR      68  59  73 SE9       30.03R
LITTLE FALLS   MOSUNNY   68  55  64 SE7       30.03S
LITCHFIELD     PTSUNNY   68  61  77 SE8       30.04S
BUFFALO        PTSUNNY   69  56  63 SE10      30.06F
MAPLE LAKE     CLOUDY    70  60  71 SE7       30.05F
$$
MNZ037-044-045-052-053-271700-
   East Central Minnesota

CITY           SKY/WX    TMP DP  RH WIND       PRES   REMARKS
PRINCETON      CLOUDY    70  57  64 SE9       30.05F
MORA           CLOUDY    64  55  72 SE6       30.09F
CAMBRIDGE      CLOUDY    70  55  60 SE7       30.05F
MOOSE LAKE     CLOUDY    66  55  68 SE7       30.07S
HINCKLEY       CLOUDY    64  59  82 S5        30.09S
CLOQUET        CLOUDY    64  54  68 SE7       30.09F
MCGREGOR       CLOUDY    66  55  68 SE8       30.07F
$$
MNZ071>073-080-081-089-090-097-098-271700-
   Southwest Minnesota

CITY           SKY/WX    TMP DP  RH WIND       PRES   REMARKS
MONTEVIDEO     CLOUDY    64  59  82 S7        30.02R
GRANITE FALLS  CLOUDY    65  59  80 SE7       30.02R
CANBY          LGT RAIN  65  62  89 CALM      30.02R
MARSHALL       CLOUDY    68  59  73 E8        30.01R
REDWOOD FALLS  CLOUDY    68  59  73 SE13      29.99F
OLIVIA         CLOUDY    64  55  72 SE9       30.00F
PIPESTONE      CLOUDY    68  61  77 SE6       30.00R
WINDOM         CLOUDY    64  57  77 SE13G24   29.96F
WORTHINGTON    CLOUDY    63  54  72 S13G18    30.01R
JACKSON        CLOUDY    63  57  82 E18       29.97F
TRACY          CLOUDY    67  61  78 SE3       30.01R
SLAYTON        CLOUDY    65  60  83 CALM      30.01R
$$
MNZ065>067-074>077-082>085-091>093-271700-
   South Central Minnesota

CITY           SKY/WX    TMP DP  RH WIND       PRES   REMARKS
MANKATO        PTSUNNY   70  55  60 S12G22    30.07F
NEW ULM        PTSUNNY   70  59  68 S14       30.03F
FAIRMONT       CLOUDY    64  54  68 SE16      30.04F
GLENCOE        CLOUDY    67  59  75 SE5       30.05F
FARIBAULT      CLOUDY    66  57  72 S9        30.11S
OWATONNA       PTSUNNY   68  57  68 S12G17    30.11F
WASECA         PTSUNNY   70  55  60 S12G18    30.11S
ALBERT LEA     PTSUNNY   70  55  60 S13G20    30.12F
$$
MNZ078>079-086>088-094>096-271700-
   Southeast Minnesota

CITY           SKY/WX    TMP DP  RH WIND       PRES   REMARKS
ROCHESTER      CLOUDY    64  57  78 S12       30.17R
RED WING       PTSUNNY   68  57  68 SE6       30.10F
STANTON        CLOUDY    68  57  68 S5        30.10S
DODGE CENTER   CLOUDY    64  57  77 S10       30.14S
WINONA         MOSUNNY   70  59  68 E3        30.14S
AUSTIN         PTSUNNY   68  57  68 S13       30.15S
PRESTON        PTSUNNY   65  55  69 SW8       30.18R
$$
ABBREVIATIONS USED IN REMARKS
   TC - TEMPERATURES IN CELSIUS
  WCI - WIND CHILL INDEX
   HX - HEAT INDEX
  VSB - VISIBILITY
$$


USA.gov is the U.S. government's official web portal to all federal, state and local government web resources and services.